Terminal Aerodrome Forecast
Issued by NWS

Home | Current Version | Previous Version | Text Only | Print | Product List | Glossary On
Versions: 1 2 3 4 5 6 7 8 9 10 11 12 13 14 15 16 17 18 19 20 21 22 23 24 25 26 27 28 29 30 31 32 33 34 35 36 37 38 39 40
000
FTUS41 KBOX 021736
TAFFMH
TAF
KFMH 021736Z 0218/0318 22015KT P6SM FEW250
     FM022200 21009KT P6SM SCT050
     FM030200 22009KT 3SM BR SCT003 BKN040
     FM030700 26007KT 1SM BR BKN030
     FM031000 26007KT P6SM SCT030
     FM031200 28006KT P6SM SCT250=

USA.gov is the U.S. government's official web portal to all federal, state and local government web resources and services.